Regional Weather Roundup
Issued by NWS

Home | Current Version | Previous Version | Graphics & Text | Print | Product List | Glossary Off
Versions: 1 2 3 4 5 6 7 8 9 10 11 12 13 14 15 16 17 18 19 20 21 22 23 24 25 26 27 28 29 30 31 32 33 34 35 36 37 38 39 40 41 42 43 44 45 46 47 48 49 50

000
ASUS43 KTOP 230559
RWRKS

WEATHER ROUNDUP FOR KANSAS
NATIONAL WEATHER SERVICE GOODLAND KS
1200 AM CST MON JAN 23 2017

NOTE:  "FAIR" INDICATES FEW OR NO CLOUDS BELOW 12,000 FEET WITH NO
SIGNIFICANT WEATHER AND/OR OBSTRUCTIONS TO VISIBILITY.

KSZ001>006-013>018-027>032-041>047-230700-
NORTHWEST KANSAS

CITY           SKY/WX    TMP DP  RH WIND       PRES   REMARKS
GOODLAND       CLEAR     30  23  75 SW8       29.89F
6HR MIN TEMP:  24; 6HR MAX TEMP:  38;

HAYS           CLEAR     27  24  89 NW7       29.93S
HILL CITY      CLEAR     29  26  89 W5        29.92F
6HR MIN TEMP:  29; 6HR MAX TEMP:  44;

RUSSELL        CLEAR     29  24  82 W7        29.91F
6HR MIN TEMP:  28; 6HR MAX TEMP:  41;

$$

KSZ061>065-074>080-084>089-230700-
SOUTHWEST KANSAS

CITY           SKY/WX    TMP DP  RH WIND       PRES   REMARKS
DODGE CITY     CLEAR     32  26  78 SW6       29.96R
6HR MIN TEMP:  29; 6HR MAX TEMP:  41;

ELKHART          N/A     35  18  50 S8          N/A
GARDEN CITY    CLEAR     29  24  82 SW3       29.94F
6HR MIN TEMP:  27; 6HR MAX TEMP:  41;

GREAT BEND     CLEAR     28  25  88 S7        29.95R
LIBERAL          N/A     30  21  69 W3        29.96F
$$

KSZ066>073-081>083-090>101-230700-
SOUTHEAST KANSAS

CITY           SKY/WX    TMP DP  RH WIND       PRES   REMARKS
CHANUTE        CLEAR     32  30  92 N6        29.93R
6HR MIN TEMP:  32; 6HR MAX TEMP:  40;

COFFEYVILLE    CLEAR     35  31  85 N9        29.94S
6HR MIN TEMP:  35; 6HR MAX TEMP:  45;

HUTCHINSON     CLEAR     29  26  89 NW3       29.94S
6HR MIN TEMP:  27; 6HR MAX TEMP:  47;

MEDICINE LODGE   N/A     31  26  82 NW5       29.97R
NEWTON         CLEAR     30  29  96 W7        29.93F
PARSONS        CLEAR     34  31  88 N3        29.94R
6HR MIN TEMP:  34; 6HR MAX TEMP:  40;

WICHITA INTL   CLEAR     32  29  88 W3        29.94F
6HR MIN TEMP:  31; 6HR MAX TEMP:  48;

WICHITA JABRA  CLEAR     32  30  92 W8        29.94S
6HR MIN TEMP:  31; 6HR MAX TEMP:  44;

WINFIELD       CLEAR     31  29  92 NW3       29.96R
6HR MIN TEMP:  31; 6HR MAX TEMP:  47;

$$

KSZ007>012-019>026-033>040-048>060-102>105-230700-
NORTHEAST KANSAS

CITY           SKY/WX    TMP DP  RH WIND       PRES   REMARKS
CONCORDIA      CLEAR     28  27  96 CALM      29.91S
6HR MIN TEMP:  28; 6HR MAX TEMP:  41;

EMPORIA        CLEAR     29  29 100 CALM      29.92S
6HR MIN TEMP:  29; 6HR MAX TEMP:  36;

LAWRENCE       CLEAR     29  28  96 W6        29.92S
6HR MIN TEMP:  29; 6HR MAX TEMP:  40;

MANHATTAN      CLEAR     26  24  92 CALM      29.93S
6HR MIN TEMP:  26; 6HR MAX TEMP:  38;

OLATHE IND     PTCLDY    34  32  92 N7        29.91S
6HR MIN TEMP:  34; 6HR MAX TEMP:  38;

OLATHE EXE     MOCLDY    36  33  89 N9        29.90R
6HR MIN TEMP:  36; 6HR MAX TEMP:  37;

SALINA           N/A    N/A N/A N/A MISG        N/A
TOPEKA BILLARD CLEAR     32  29  88 W6        29.93R
6HR MIN TEMP:  32; 6HR MAX TEMP:  41;

TOPEKA FORBES  CLEAR     31  29  92 W6        29.93R
6HR MIN TEMP:  31; 6HR MAX TEMP:  41;

$$



USA.gov is the U.S. government's official web portal to all federal, state and local government web resources and services.